Starlink 11368

operational
NORAD ID: 61583 Int'l Des: 2024-187 Owner: SPXS Country: US Constellation: starlink
LEOCIRCULAR

Über Starlink 11368

Beschreibung wird geladen...

Live-Position

3D-Globus wird geladen...

Nächste Überflüge

Höhenverlauf

Altitude vs Time

uPlot chart will show altitude changes over time

Zweizeiliger Elementsatz

1 61583U 24187K 25259.78792501 -.00006578 00000-0 -49555-4 0 9997
2 61583 53.1587 73.7811 0000903 51.7737 308.3362 15.69673954 53382
Epoch: 16. Sept. 2025 • Age: 33 hours

Aktueller Status

Höhe 364.9 km
Geschwindigkeit 7.69 km/s
Subsatellitenpunkt -16.53°S, 155.31°W
Startdatum 18. Okt. 2024
Alter 0.9 years
Typ internet

Technische Details

Klassifizierung Payload
Masse 960.00 kg
Trockenmasse 910.00 kg
Gesamtmasse 960.00 kg
Länge 0.30 m
Durchmesser 4.10 m
Spannweite 29.00 m
Form Box + pan
Hersteller SPXS
Bus-Typ Starlink V2MD
Phasenstatus In Orbit
Besitzer/Staat SPXS/US

Große Konstellationen

Loading constellations...